Montana Department of Transportation

Main Content

Accidents and Incidents Report

Hourly Weather Roundup

ASUS45 KTFX 182010
RWRMT 
MONTANA REGIONAL WEATHER ROUNDUP
NATIONAL WEATHER SERVICE GREAT FALLS MT
100 PM MST MON DEC 18 2017

NOTE: "FAIR" INDICATES FEW OR NO CLOUDS BELOW 12000 FEET WITH NO
SIGNIFICANT WEATHER AND/OR OBSTRUCTIONS TO VISIBILITY.

MTZ001.007-043-182100-
WEST OF THE DIVIDE
  
CITY           SKY/WX    TMP DP  RH WIND       PRES   REMARKS
KALISPELL      LGT RAIN  38  35  89 S8        29.84S                  
MISSOULA       CLOUDY    42  32  67 MISG      29.91F                  
BUTTE          CLOUDY    42  24  49 SW10G21   29.88F                  
MULLAN PASS    SNOW      31  27  85 W8G22     29.87S VSB 1/4 WCI  23  
ANACONDA         N/A     45  25  45 W12G23    29.85S                  
DEER LODGE       N/A     43  30  61 NE10      29.87S                  
EUREKA           N/A     41  34  75 MISG      29.83R                  
HAMILTON         N/A     46  28  49 S13G22    29.92F                  
LIBBY            N/A     39  37  93 S5        29.86R                  
PLAINS           N/A     43  32  65 SE6       29.90S                  
RONAN            N/A     41  30  65 SE13      29.93S                  
--------------------------------

MTZ008-052.055-182100-
SOUTHWEST MONTANA
  
CITY           SKY/WX    TMP DP  RH WIND       PRES   REMARKS
BOZEMAN        PTSUNNY   44  26  49 SW13      29.84S                  
DILLON         PTSUNNY   41  24  51 S13       29.91F                  
ENNIS          CLOUDY    32  21  64 S29G37    29.97S WCI  18          
W YELLOWSTONE  CLOUDY    21  19  93 SW17G24   30.06F FOG     WCI   7  
THREE FORKS      N/A     42  28  58 SW10      29.84F                  
--------------------------------

MTZ009-010-012-014-046-048-049-054-182100-
EAST SLOPES AND CENTRAL MONTANA
  
CITY           SKY/WX    TMP DP  RH WIND       PRES   REMARKS
CUT BANK       SNOW      26  24  92 N13       29.78R VSB 1/2 WCI  15  
GREAT FALLS    FAIR      48  24  39 W24G35    29.72S                  
MALMSTROM AFB  PTSUNNY   47  25  42 W26G35    29.73R                  
HELENA         FAIR      47  32  56 W10G20    29.80S                  
BOWMANS CRNR   FAIR      45  24  43 W29       29.72S                  
CHOTEAU          N/A     45  30  57 W14G21    29.74R                  
FAIRFIELD      PTSUNNY   46  26  45 W25       29.71S                  
POWER          FAIR      44  28  51 W25G31    29.70S                  
RAYNESFORD     PTSUNNY   46  27  47 W30G41    29.71S                  
ULM            FAIR      47  26  43 W37G47    29.74R                  
WHITE SULPHUR    N/A     37  28  70 W13       29.78F WCI  29          
--------------------------------

MTZ011-013-016-021-045-047-050-051-182100-
NORTH CENTRAL MONTANA
  
CITY           SKY/WX    TMP DP  RH WIND       PRES   REMARKS
HAVRE          LGT SNOW  32  30  92 N10       29.75R FOG     WCI  24  
LEWISTOWN      FAIR      46  29  51 W18G25    29.68F                  
N BAR RANCH    FAIR      46  25  42 W22G36    29.69S                  
CHINOOK          N/A     32  32 100 NW5       29.75R VSB 1/2          
DENTON         PTSUNNY   48  25  40 W32G39    29.65R                  
GEYSER         FAIR      46  27  47 W31G45    29.68R                  
GRASS RANGE    PTSUNNY   48  27  45 W30G37    29.65S                  
STANFORD       FAIR      45  27  48 W28G39    29.67F                  
WINIFRED       PTSUNNY   49  24  37 W33G46    29.65S                  
--------------------------------

MTZ017.020-022.027-061-062-182100-
NORTHEAST MONTANA
  
CITY           SKY/WX    TMP DP  RH WIND       PRES   REMARKS
GLASGOW        LGT SNOW  33  32  96 NW13      29.66R FOG     WCI  24  
GLENDIVE       FAIR      47  34  60 NW20G26   29.62F                  
JORDAN           N/A     47  32  56 N18       29.63R                  
MALTA          SUNNY     34  32  93 N9G17     29.71R FOG     WCI  26  
SIDNEY         LGT RAIN  43  32  65 NW24G35   29.59R                  
WOLF POINT     LGT RAIN  39  34  82 W17       29.64R WCI  30PLENTYWOOD       N/A     32  30  93 W10       29.61R WCI  24          
POPLAR           N/A     39  34  81 NW15      29.62R WCI  31          
SCOBEY           N/A     32  25  76 NW7       29.63R WCI  26          
--------------------------------

MTZ028.42-056.058-182100-
SOUTHCENTRAL AND SOUTHEAST MONTANA
  
CITY           SKY/WX    TMP DP  RH WIND       PRES   REMARKS
BAKER          PTSUNNY   47  28  47 W17       29.64F                  
BILLINGS       PTSUNNY   42  27  55 SW25      29.74F                  
LIVINGSTON     CLOUDY    44  26  49 SW33G44   29.77R                  
MILES CITY     CLOUDY    54  29  38 W21G29    29.64F                  
BIG TIMBER     SUNNY     48  25  40 W30G43    29.74S                  
EKALAKA          N/A     45  22  40 SW12      29.67F                  
FORSYTH          N/A     52  27  37 W20G26    29.65F                  
HARLOWTON      PTSUNNY   45  29  55 NW24G33   29.73R                  
LAUREL           N/A     41  27  56 SW17      29.76S                  
ROUNDUP          N/A     53  24  32 W29       29.64F                  
--------------------------------

REGIONAL REPORTS...DAKOTAS
  
CITY           SKY/WX    TMP DP  RH WIND       PRES   REMARKS
WILLISTON      CLOUDY    37  34  89 N13       29.59R WCI  29          
MINOT          CLOUDY    36  34  92 NW7       29.54S WCI  30          
DICKINSON      FAIR      46  28  49 W23G35    29.57S                  
BEACH          PTSUNNY   45  32  61 W18       29.64S                  
CROSBY         CLOUDY    34  34 100 W7        29.57S WCI  28          
TIOGA          CLOUDY    32  32 100 NW12G18   29.58R WCI  23          
BISMARCK       CLOUDY    45  35  68 W12       29.58F                  
GRAND FORKS    CLOUDY    36  30  79 W8        29.49F WCI  30          
FARGO          LGT RAIN  36  33  89 S9        29.54F WCI  29          
BUFFALO SD       N/A     51  26  37 W31G39    29.58F                  
RAPID CITY     FAIR      55  25  31 W8        29.72F                  
--------------------------------

REGIONAL REPORTS...WYOMING/IDAHO/WASHINGTON
  
CITY           SKY/WX    TMP DP  RH WIND       PRES   REMARKS
GILLETTE       FAIR      43  28  55 SW14      29.76F                  
SHERIDAN       FAIR      46  28  49 CALM      29.74F                  
BUFFALO WY     FAIR      43  26  51 S10       29.77S                  
CODY           FAIR      44  21  40 W18G38    29.85F                  
YELLOWSTONE LA   N/A     21  17  84 VRB5      30.07S                  
IDAHO FALLS    CLOUDY    30  24  78 S5        30.17F                  
SALMON         CLOUDY    27  20  75 CALM      30.05F                  
BOISE          FAIR      41  28  60 CALM      30.21F                  
SPOKANE        PTSUNNY   38  36  92 W14       29.96R WCI  30          
--------------------------------

REGIONAL REPORTS...ALBERTA
  
CITY           SKY/WX    TMP DP  RH WIND       PRES   REMARKS
--------------------------------

REGIONAL REPORTS...SASKATCHEWAN
  
CITY           SKY/WX    TMP DP  RH WIND       PRES   REMARKS
--------------------------------